Regional Weather Roundup
Issued by NWS Bismarck, ND

Home | Current Version | Previous Version | Text Only | Print | Product List | Glossary On
Versions: 1 2 3 4 5 6 7 8 9 10 11 12 13 14 15 16 17 18 19 20 21 22 23 24 25 26 27 28 29 30 31 32 33 34 35 36 37 38 39 40 41 42 43 44 45 46 47 48 49 50
000
ASUS43 KBIS 292302
RWRBIS

NWR BROADCAST TEXT
NATIONAL WEATHER SERVICE BISMARCK ND
600 PM CDT FRI APR 29 2016

NOTE: "FAIR" INDICATES FEW OR NO CLOUDS BELOW 12,000 FEET WITH NO
SIGNIFICANT WEATHER AND/OR OBSTRUCTIONS TO VISIBILITY.


CITY           SKY/WX    TMP DP  RH WIND       PRES   REMARKS
WILLISTON      CLOUDY    61  26  26 SE14      30.12R
MINOT          SUNNY     65  22  19 E17G23    30.14R
MINOT AFB      SUNNY     62  24  23 SE16G23   30.13R
BISMARCK       MOSUNNY   62  33  33 E17       30.09F
DICKINSON      CLOUDY    55  26  32 E14       30.06F
GARRISON         N/A     61  28  28 E15       30.12R
HETTINGER ARPT MOSUNNY   55  28  35 E15G21    30.07F
JAMESTOWN      PTSUNNY   62  31  31 E12       30.11F
CARRINGTON     FAIR      61  30  31 E14       30.16R
HAZEN          FAIR      59  28  31 E12G20    30.12S
OAKES            N/A    N/A N/A N/A MISG        N/A
STANLEY        FAIR      59  21  23 SE14G22   30.15S
$$

CITY           SKY/WX    TMP DP  RH WIND       PRES   REMARKS
GRAND FORKS    MOSUNNY   63  30  28 NE16      30.14S
GRAND FORKS AF SUNNY     62  29  28 NE15G22   30.15R
DEVILS LAKE    SUNNY     60  29  30 E15G21    30.16S
FARGO          SUNNY     65  31  28 VRB5      30.10R
CAVALIER       FAIR      61  30  31 NE8       30.17R
GRAFTON        FAIR      63  32  31 E10       30.18R
GWINNER        FAIR      61  34  36 SE3       30.11S
LANGDON        FAIR      61  28  29 E14G20    30.18R
$$

CITY           SKY/WX    TMP DP  RH WIND       PRES   REMARKS
ABERDEEN       CLOUDY    57  38  48 SE15      30.09F
MOBRIDGE       PTSUNNY   58  38  47 SE13      30.05S
BUFFALO          N/A     51  32  48 E9        29.99F
RAPID CITY     CLOUDY    45  34  65 E12       30.04S
GLASGOW        SUNNY     58  31  35 E17G23    30.05R
SIDNEY         CLOUDY    57  28  33 SE8       30.11S
WOLF POINT     MOSUNNY   60  32  34 SE9       30.07F
GLENDIVE       CLOUDY    54  34  47 SE12      30.10S
MILES CITY     CLOUDY    50  36  58 SE17      30.05R
BAKER          LGT RAIN  48  35  60 SE12      30.08S
$$

CITY           SKY/WX    TMP DP  RH WIND       PRES   REMARKS
BILLINGS       CLOUDY    49  31  49 E13       29.97S
GREAT FALLS    CLOUDY    51  30  44 N9        29.92S
$$




USA.gov is the U.S. government's official web portal to all federal, state and local government web resources and services.